Overview Statistics Trail Chart Weather Telemetry Raw packets
 

This is the latest recevied weather packets stored in our database for station/object K7NDG. If no packets are shown the sender has not sent any weather packets the latest 10 day(s).

<< 1 2 3 4 5 6 7 >>
Time Temp. Humidity Pressure Rain* Wind** Luminosity Snow
1788556568 22.78° C 53% 1012.7 hPa 0 mm - 606 W/m² -
1788556264 22.22° C 53% 1012.6 hPa 0 mm - 613 W/m² -
1788555964 21.67° C 56% 1012.8 hPa 0 mm - 372 W/m² -
1788555659 21.11° C 59% 1012.7 hPa 0 mm - 546 W/m² -
1788555355 21.11° C 56% 1012.6 hPa 0 mm - 192 W/m² -
1788555051 20.56° C 59% 1012.6 hPa 0 mm - 543 W/m² -
1788554747 21.11° C 57% 1012.7 hPa 0 mm - 706 W/m² -
1788554443 21.11° C 56% 1012.7 hPa 0 mm - 330 W/m² -
1788554138 21.67° C 54% 1012.8 hPa 0 mm - 180 W/m² -
1788553835 22.22° C 55% 1012.6 hPa 0 mm - 621 W/m² -
1788553531 22.78° C 55% 1012.6 hPa 0 mm - 456 W/m² -
1788553227 22.22° C 56% 1012.6 hPa 0 mm - 647 W/m² -
1788552921 21.67° C 57% 1012.6 hPa 0 mm - 653 W/m² -
1788552617 21.67° C 54% 1012.5 hPa 0 mm - 601 W/m² -
1788552315 21.67° C 57% 1012.7 hPa 0 mm - 565 W/m² -
1788552011 21.67° C 60% 1012.6 hPa 0 mm - 569 W/m² -
1788551709 21.67° C 60% 1012.7 hPa 0 mm - 565 W/m² -
1788551408 21.67° C 61% 1012.8 hPa 0 mm - 543 W/m² -
1788551103 21.11° C 63% 1012.8 hPa 0 mm - 541 W/m² -
1788550798 20.56° C 65% 1012.9 hPa 0 mm - 461 W/m² -
1788550493 20° C 66% 1012.7 hPa 0 mm - 531 W/m² -
1788550189 19.44° C 65% 1012.7 hPa 0 mm - 498 W/m² -
1788549883 20° C 65% 1013 hPa 0 mm - 488 W/m² -
1788549580 20° C 67% 1012.9 hPa 0 mm - 489 W/m² -
1788549276 20° C 68% 1012.8 hPa 0 mm - 494 W/m² -

* Rain latest hour (hover to see other rain measurements)
** Current wind speed in m/s (hover to see current wind gust speed)